Regional Weather Roundup
Issued by NWS

Home | Current Version | Previous Version | Graphics & Text | Print | Product List | Glossary On
Versions: 1 2 3 4 5 6 7 8 9 10 11 12 13 14 15 16 17 18 19 20 21 22 23 24 25 26 27 28 29 30 31 32 33 34 35 36 37 38 39 40 41 42 43 44 45 46 47 48 49 50
000
ASUS45 KSLC 211310
RWRUT

UTAH REGIONAL WEATHER ROUNDUP
NATIONAL WEATHER SERVICE SALT LAKE CITY UT
600 AM MST SUN DEC 21 2014

UTZ001>011-023>025-211400-

NORTHERN UTAH

CITY           SKY/WX    TMP DP  RH WIND       PRES   REMARKS
BRIGHAM CITY   CLOUDY    39  35  86 S10       29.95F WCI  32
HILL AFB       FLURRIES  34  34 100 S16       29.95F WCI  23
LOGAN          LGT RAIN  39  34  82 S15G22    29.89F WCI  31
OGDEN          LGT RAIN  35  34  96 SE14      29.94F WCI  26
PROVO AIRPORT  CLOUDY    37  34  87 NE7       30.05R WCI  32
SALT LAKE CITY RAIN      39  36  89 S12       29.97F WCI  32
VERNAL         CLOUDY    28  28 100 E3        29.98S FOG
WENDOVER       CLOUDY    36  30  80 E8        29.95F WCI  29
HEBER CITY     MIX PCPN  36  32  87 CALM      29.99S
WEST JORDAN    CLOUDY    37  37 100 S20G26    29.99F WCI  27

$$

UTZ012>022-026-027-211400-

SOUTHERN/CENTRAL UTAH

CITY           SKY/WX    TMP DP  RH WIND       PRES   REMARKS
BLANDING       CLOUDY    27  26  98 CALM      30.11F
BRYCE CANYON   MOCLDY    35  25  66 NW14      30.09R WCI  26
CEDAR CITY     PTCLDY    31  26  82 SE6       30.08S WCI  25
DELTA          CLOUDY    36  31  82 S12       30.04R WCI  28
MILFORD        PTCLDY    35  28  75 SW17      30.05F WCI  25
MOAB/CYNLANDS  CLOUDY    34  32  92 NW3       30.02F
PRICE          CLOUDY    31  25  78 CALM      30.02S
ST GEORGE      CLOUDY    34  28  80 SE7       30.14F WCI  28

$$

REGIONAL REPORTS     COLORADO/ARIZONA

CITY           SKY/WX    TMP DP  RH WIND       PRES   REMARKS
CRAIG, CO      FLURRIES  27  24  89 CALM      29.95S
GRAND JUNCTION CLOUDY    32  30  92 CALM      30.03F
RIFLE          MIX PCPN  30  28  92 CALM      30.03S
MONTROSE       CLOUDY    28  26  92 CALM      30.05S
CORTEZ         CLEAR     25  23  92 E5        30.04F WCI  19
PAGE, AZ       MOCLDY    33  27  78 W5        30.08S WCI  29
GRAND CANYON   CLOUDY    24  22  91 CALM      30.09F
KINGMAN        PTCLDY    32  30  92 S3        30.13R
FLAGSTAFF      MOCLDY    34  20  56 SW6       30.10F WCI  29

$$

REGIONAL REPORTS    NEVADA/IDAHO/WYOMING

CITY           SKY/WX    TMP DP  RH WIND       PRES   REMARKS
LAS VEGAS, NV  MOCLDY    44  36  73 S8        30.09F
ELY            CLOUDY    35  34  96 W3        30.12R
ELKO           CLOUDY    42  37  82 S6        30.03R
POCATELLO, ID  CLOUDY    41  38  89 SW23G30   29.82S
BURLEY         LGT RAIN  41  37  86 SW17      29.85S
EVANSTON, WY   LGT SNOW  31  30  96 SW24G31   29.88F VSB 1   WCI  17
ROCK SPRINGS   FLURRIES  31  28  89 SW15      29.83F WCI  20
KEMMERER       LGT SNOW  32  32 100 SW22      29.84F VSB 1   WCI  19

$$



USA.gov is the U.S. government's official web portal to all federal, state and local government web resources and services.